Regional Weather Roundup
Issued by NWS

Home | Current Version | Previous Version | Graphics & Text | Print | Product List | Glossary On
Versions: 1 2 3 4 5 6 7 8 9 10 11 12 13 14 15 16 17 18 19 20 21 22 23 24 25 26 27 28 29 30 31 32 33 34 35 36 37 38 39 40 41 42 43 44 45 46 47 48 49 50
000
ASUS43 KDTX 281401
RWRMI
MICHIGAN HOURLY REGIONAL WEATHER ROUNDUP
NATIONAL WEATHER SERVICE DETROIT/PONTIAC MI
1000 AM EDT SAT MAR 28 2015

NOTE: "FAIR" INDICATES FEW OR NO CLOUDS BELOW 12,000 FEET WITH NO
SIGNIFICANT WEATHER AND/OR OBSTRUCTION TO VISIBILITY.

MIZ047>049-052>055-059>063-066>070-074>076-081>083-281500-
SOUTHEAST LOWER MICHIGAN

CITY           SKY/WX    TMP DP  RH WIND       PRES   REMARKS
ADRIAN         FAIR      23   8  52 N14       30.28R WCI  11
ALMA           SUNNY     21  12  66 N5        30.31R WCI  15
ANN ARBOR      MOSUNNY   22   9  57 N10       30.27R WCI  11
BAD AXE        PTSUNNY   22  10  59 N8        30.27S WCI  13
CARO           SUNNY     23  14  68 NW6       30.28R WCI  16
DETROIT CITY   SUNNY     24   8  50 N9        30.28R WCI  14
DETROIT        PTSUNNY   24  10  55 N10       30.28R WCI  14
FLINT          SUNNY     23  10  57 NW9       30.28R WCI  13
GROSSE ILE     CLOUDY    23  10  58 N8        30.27R WCI  14
HILLSDALE      SUNNY     21   9  60 N7        30.25R WCI  12
HOWELL         SUNNY     21  11  65 NW5       30.27R WCI  14

CITY           SKY/WX    TMP DP  RH WIND       PRES   REMARKS
JACKSON        SUNNY     22   6  50 N8        30.27R WCI  12
LAMBERTVILLE   SUNNY     25  12  58 N6        30.28R WCI  18
LANSING        SUNNY     21   9  59 N3        30.30R
LAPEER         FLURRIES  21  15  79 N6        30.27R WCI  13
MASON          SUNNY     20   9  61 N6        30.28R WCI  13
MONROE         SUNNY     23  12  63 N7        30.27R WCI  15
MT. CLEMENS    MOSUNNY   21   9  59 N14       30.25R WCI   8
PONTIAC        PTSUNNY   21  10  62 N6        30.25R WCI  13
PORT HOPE        N/A     24  10  55 N9        30.26R WCI  14
PORT HURON     SUNNY     21   9  58 NE13      30.28R WCI   9
TRI CITIES     SUNNY     23  11  60 N7        30.30R WCI  15
TROY           PTSUNNY   22  12  63 NE8       30.29R WCI  13
SAGINAW HB     SUNNY     23  12  63 NW7       30.29S WCI  15
$$
MIZ043>046-050>051-056>058-064>065-071>073-077>080-281500-
SOUTHWEST LOWER MICHIGAN

CITY           SKY/WX    TMP DP  RH WIND       PRES   REMARKS
BATTLE CREEK   SUNNY     21   8  57 N6        30.30R WCI  13
BENTON HARBOR  SUNNY     20   9  62 SE3       30.32R
BIG RAPIDS     SUNNY     19   8  62 CALM      30.29R
COLDWATER      SUNNY     20  10  64 N3        30.28R
FREMONT        FAIR      20   3  47 CALM      30.31R
HOLLAND        SUNNY     22   6  50 NE3       30.33R
GRAND RAPIDS   SUNNY     22   5  48 N3        30.31R
IONIA          FAIR      21   8  56 CALM      30.30R
KALAMAZOO      SUNNY     22   8  55 NW5       30.30R WCI  16
LUDINGTON      SUNNY     21  10  63 CALM      30.34R
MARSHALL       SUNNY     20   4  51 N5        30.29R WCI  13
MOUNT PLEASANT SUNNY     21  11  66 CALM      30.30R
MUSKEGON       SUNNY     22   2  42 CALM      30.33R
SOUTH HAVEN    SUNNY     22  10  59 CALM      30.32R
$$
MIZ016>042-281500-
NORTHERN LOWER MICHIGAN

CITY           SKY/WX    TMP DP  RH WIND       PRES   REMARKS
ALPENA         SUNNY     22  12  65 NW5       30.30R WCI  16
BEAVER ISLAND  SUNNY     17   8  69 CALM      30.32S
BELLAIRE       SUNNY     15   8  75 CALM      30.35R
CADILLAC       SUNNY     18   9  67 CALM      30.25R
CHARLEVOIX     SUNNY     18  10  73 CALM      30.35S
FRANKFORT      SUNNY     22   0  38 E3        30.35R
GAYLORD        SUNNY     17  10  74 CALM      30.26R
GRAYLING       SUNNY     17   9  71 CALM      30.28R
HARBOR SPRINGS SUNNY     11   5  77 SW5       30.32R WCI   3
HOUGHTON LAKE  SUNNY     15   8  73 W3        30.28R
MANISTEE       SUNNY     16   7  67 SE3       30.34R
OSCODA         SUNNY     24  11  58 NW6       30.28S WCI  16
PELLSTON       SUNNY     15   7  70 NW3       30.31S
ROGERS CITY    SUNNY     23  17  77 NW7       30.31R WCI  14
TRAVERSE CITY  SUNNY     17   6  62 NW3       30.33R
$$
MIZ007>008-015-281500-
EASTERN UPPER MICHIGAN

CITY           SKY/WX    TMP DP  RH WIND       PRES   REMARKS
KINROSS        SUNNY     14  12  92 CALM      30.29R
MACKINAC ISLAN SUNNY     13   8  79 SW3       30.30S
NEWBERRY       SUNNY     11   6  81 W3        30.29R
S. S. MARIE    SUNNY     15  10  80 NW3       30.30R
$$
MIZ004>006-011>014-085-281500-
CENTRAL UPPER MICHIGAN

CITY           SKY/WX    TMP DP  RH WIND       PRES   REMARKS
MANISTIQUE     SUNNY     18   8  62 CALM      30.31S
ESCANABA       SUNNY     16   7  67 CALM      30.32S
MENOMINEE      SUNNY     21  10  63 SE5       30.32R WCI  15
SAWYER-GWINN   SUNNY      7   0  72 CALM      30.25S
$$
MIZ001>003-009>011-084-281500-
WESTERN UPPER MICHIGAN

CITY           SKY/WX    TMP DP  RH WIND       PRES   REMARKS
IRON MOUNTAIN  SUNNY     14   3  61 CALM      30.25R
HOUGHTON       SUNNY     15   8  73 CALM      30.22F
COPPER HARBOR    N/A     21   8  57 VRB7      30.25F WCI  12
IRONWOOD       SUNNY     21  10  63 CALM      30.21R
$$

ABBREVIATIONS USED IN REMARKS
   TC - TEMPERATURE IN CELSIUS
  WCI - WIND CHILL INDEX
   HX - HEAT INDEX
  VSB - VISIBILITY




USA.gov is the U.S. government's official web portal to all federal, state and local government web resources and services.